Location: Terre Du Lac
(37.9120°N, 90.6250°W)
Time: 06:05:58
(UTC-06:00)

Hubble Space Telescope - Visible Passes

Search period start: 28 January 2015 00:00
Search period end: 07 February 2015 00:00
Orbit: 544 x 548 km, 28.5° (Epoch: 27 January)

Date Brightness Start Highest point End Pass type
(mag) Time Alt. Az. Time Alt. Az. Time Alt. Az.
28 Jan 2.9 18:58:58 10° SSW 19:01:26 15° SSE 19:02:01 15° SSE visible
29 Jan 2.8 18:50:33 10° SSW 18:53:22 18° SSE 18:54:35 16° SSE visible
30 Jan 2.7 18:42:15 10° SW 18:45:16 19° S 18:47:07 15° SE visible
31 Jan 2.7 18:34:01 10° SW 18:37:11 21° S 18:39:40 13° SE visible
31 Jan 3.8 20:14:52 10° SW 20:15:10 11° SW 20:15:10 11° SW visible
01 Feb 2.7 18:25:51 10° SW 18:29:06 22° S 18:32:13 11° SE visible
01 Feb 3.6 20:06:56 10° SW 20:07:44 13° SW 20:07:44 13° SW visible
02 Feb 2.7 18:17:44 10° SW 18:21:01 22° S 18:24:17 10° SE visible
02 Feb 3.4 19:59:04 10° SW 20:00:19 14° SW 20:00:19 14° SW visible
03 Feb 2.8 18:09:39 10° SW 18:12:55 22° S 18:16:11 10° SE visible
03 Feb 3.3 19:51:18 10° SW 19:52:57 14° SSW 19:52:57 14° SSW visible
04 Feb 2.9 18:01:37 10° SW 18:04:50 21° S 18:08:01 10° SE visible
04 Feb 3.4 19:43:43 10° SW 19:45:34 13° SSW 19:45:37 12° SSW visible
05 Feb 3.0 17:53:37 10° SW 17:56:43 20° S 17:59:48 10° SE visible
05 Feb 3.5 19:36:50 10° SSW 19:37:26 10° SSW 19:37:55 10° SSW visible
